Flag for Tuvalu Weather past 2 weeks in Funafuti, Tuvalu

Now
84 °F

Partly cloudy.


Feels Like: 96 °F
Forecast: 79 / 88 °F
Wind: 3 mph from North

Location: Funafuti

Current Time: Dec 20, 2014 at 12:16:02 AM

Latest Report: Dec 19, 2014 at 11:00 PM


Visibility: N/A

Pressure: 29.80 "Hg

Humidity: 84%

Dew point: 79 °F

Location of FunafutiLocation

Historic Weather in Funafuti — Graph

°F

Funafuti temperature yesterday

Maximum temperature yesterday: 91 °F (at 12:00 PM)
Minimum temperature yesterday: 82 °F (at 1:00 AM)
Average temperature yesterday: 87 °F

Past Weeks' High & Low Weather Summary

 TemperatureHumidityPressure
High91 °F (Dec 10, 3:00 PM)100% (Dec 5, 2:00 AM)29.89 "Hg (Dec 5, 2:00 AM)
Low77 °F (Dec 5, 2:00 AM)63% (Dec 9, 12:00 PM)29.53 "Hg (Dec 19, 10:00 AM)
Average85 °F77%29.78 "Hg
* Reported Dec 4 11:00 PM — Dec 19 11:00 PM, Funafuti, Weather by CustomWeather, © 2014

Note: Actual official high and low records may vary slightly from our data, if they occured in-between our weather recording intervals... More about our weather records

Advertising

Funafuti weather history for previous 24 hours

 ConditionsComfort  
Time TempWeatherWind HumidityBarometerVisibility
11:00 PM
Dec 19
84 °FPartly cloudy.3 mph84%29.80 "HgN/A
9:00 PM84 °FScattered showers. Partly cloudy.No wind84%29.83 "HgN/A
8:00 PM86 °FPartly cloudy.1 mph79%29.80 "HgN/A
7:00 PM84 °FPartly cloudy.1 mph79%29.74 "HgN/A
6:00 PM86 °FBroken clouds.1 mph79%29.71 "HgN/A
5:00 PM88 °FScattered showers. Broken clouds.1 mph70%29.71 "HgN/A
4:00 PM90 °FPartly sunny.3 mph67%29.71 "HgN/A
3:00 PM91 °FScattered clouds.3 mph67%29.71 "HgN/A
2:00 PM91 °FScattered clouds.3 mph67%29.71 "HgN/A
1:00 PM91 °FScattered clouds.5 mph67%29.74 "HgN/A
12:00 PM91 °FScattered clouds.3 mph67%29.77 "HgN/A
11:00 AM90 °FScattered clouds.5 mph71%29.77 "HgN/A
10:00 AM90 °FScattered clouds.5 mph67%29.53 "HgN/A
9:00 AM90 °FScattered clouds.6 mph67%29.80 "HgN/A
8:00 AM88 °FPassing clouds.3 mph75%29.80 "HgN/A
7:00 AM84 °FWarm.N/A79%29.80 "HgN/A
6:00 AM84 °FScattered clouds.6 mph74%29.77 "HgN/A
5:00 AM82 °FPassing clouds.3 mph84%29.83 "HgN/A
2:00 AM84 °FPassing clouds.No wind74%29.83 "HgN/A
1:00 AM82 °FPassing clouds.3 mph79%29.80 "HgN/A
12:00 AM84 °FPassing clouds.5 mph74%29.83 "HgN/A
Weather by CustomWeather, © 2014

See weather overviewHow to use our weather pages